Theta_e
319 319 318 318 318 319 319 318 318 317 317 318 317 317 318 318 318 318 318 319 319 319 319 319 318 318 318 318 319 319 318 318 318 318 318 317 317 317 316 316 316 316
319 318 317 318 318 317 318 319 318 318 318 318 318 318 318 318 318 318 318 318 318 318 319 319 318 318 318 319 319 319 318 318 318 318 317 317 317 317 317 317 317 317
319 318 318 317 318 318 318 319 319 319 318 318 318 318 319 318 317 317 318 318 318 318 318 319 319 318 319 319 320 319 318 318 318 318 317 317 317 317 317 318 317 317
319 319 319 319 319 318 319 318 318 318 318 318 318 318 318 318 317 316 317 313 318 318 318 318 318 319 319 320 320 319 319 319 319 319 318 317 317 318 318 318 317 317
320 320 320 320 319 319 319 318 318 318 318 319 318 318 316 316 315 316 316 316 317 317 317 317 318 318 319 320 321 320 320 319 320 319 318 317 318 318 318 318 317 317
320 320 320 320 320 319 318 318 318 318 318 318 318 317 317 316 315 315 315 315 315 316 316 317 317 318 319 320 321 320 320 320 320 320 319 318 318 318 319 318 318 317
318 319 319 320 320 320 319 319 319 317 318 319 317 317 316 315 314 315 315 315 315 315 316 316 316 317 318 319 320 320 320 320 320 320 319 318 318 318 318 318 317 317
317 318 319 319 319 319 319 319 319 319 318 317 316 317 316 315 315 315 314 315 315 316 316 316 317 317 318 319 319 319 319 320 320 319 318 318 318 317 317 318 318 317
316 317 317 317 318 318 318 318 319 318 317 317 316 316 315 316 316 315 314 314 315 315 316 316 316 317 318 319 319 319 318 318 319 318 318 317 317 317 316 315 315 315
312 314 314 315 315 317 317 318 318 318 317 317 317 316 315 314 315 315 313 313 313 313 314 315 315 316 317 318 320 319 318 318 318 318 318 317 317 317 316 315 314 314
308 309 310 311 313 315 315 315 315 316 315 315 315 314 315 312 311 312 312 312 313 313 314 313 314 315 317 318 319 319 318 318 318 317 317 317 317 317 310 316 315 315
305 305 307 309 311 312 313 314 314 314 314 313 314 316 313 312 311 310 311 312 312 313 313 313 313 314 315 317 317 318 318 318 317 317 317 317 317 317 316 316 316 315
303 305 307 308 309 310 310 310 310 311 311 312 311 313 312 309 309 310 309 311 312 313 313 313 314 313 314 315 317 317 317 317 317 317 316 316 316 316 316 316 316 316
302 303 304 305 305 304 306 307 308 308 310 311 308 309 311 311 309 310 310 310 312 312 313 313 313 312 313 314 315 316 316 316 316 316 315 315 315 316 316 316 316 316
299 295 295 299 299 301 303 305 307 307 306 307 306 308 309 311 311 310 309 309 310 311 311 311 312 312 313 313 314 315 316 316 316 315 314 314 314 314 315 315 314 314
292 292 295 295 297 301 303 303 304 304 304 305 306 308 308 308 309 308 309 309 309 310 310 310 311 312 305 303 305 313 315 316 316 315 314 313 312 312 312 311 312 311
290 292 291 294 297 298 300 301 303 301 302 303 305 305 306 306 306 307 308 309 309 309 309 309 310 310 301 302 303 304 310 314 314 314 314 313 312 311 310 307 307 308
291 290 290 293 293 296 298 298 297 299 301 303 304 303 304 303 305 308 308 308 308 309 309 309 309 302 302 301 301 302 302 311 314 314 312 311 310 309 308 306 305 304
290 290 291 292 293 294 294 295 297 299 301 302 303 304 299 302 305 306 307 307 308 308 308 308 308 302 301 300 300 301 301 305 313 312 311 309 307 307 306 305 302 301
290 290 291 292 292 292 293 295 297 299 301 302 302 299 302 303 301 303 305 306 307 307 307 307 307 301 300 300 300 299 300 302 310 309 308 307 305 304 303 302 299 298
289 290 291 291 291 292 293 295 297 298 298 299 300 300 301 302 302 300 302 302 304 305 306 305 305 300 300 299 299 299 300 300 307 306 305 304 303 301 301 300 299 299
289 290 290 290 290 292 293 294 295 297 297 296 296 297 298 299 299 300 300 299 299 300 301 302 300 298 299 298 299 299 299 302 304 303 301 299 297 296 296 297 297 297
290 290 290 290 291 291 292 293 294 294 294 294 295 296 296 296 297 297 297 298 297 297 299 300 297 296 296 297 298 299 299 301 301 299 297 295 295 293 294 293 294 295
289 289 290 290 290 291 292 293 293 293 294 293 295 295 295 296 296 295 295 296 296 296 297 298 297 293 294 296 297 297 298 299 298 298 294 294 292 291 292 292 292 289
288 289 290 290 290 291 291 292 292 293 293 292 294 296 295 294 293 295 294 293 294 295 291 296 296 292 292 295 295 296 296 298 296 296 294 293 293 291 288 290 290 288
288 289 289 290 291 291 290 291 290 292 293 293 293 295 295 293 293 294 293 293 291 292 292 295 295 292 290 294 295 295 296 295 296 297 295 293 292 293 291 288 288 289
Wind_Speed
14 12 13 12 13 13 13 12 11 11 11 10 11 11 12 12 10 11 12 11 11 12 12 12 11 11 10 10 10 10 10 11 10 10 11 12 12 13 12 13 12 11
15 14 12 11 11 11 11 11 12 12 12 12 11 11 10 9 10 10 11 11 12 13 12 11 11 11 11 10 10 10 10 10 12 9 10 13 12 12 13 14 13 12
14 13 14 14 15 15 15 13 12 11 11 12 11 10 9 8 9 10 11 11 12 12 11 11 11 11 11 11 11 11 11 12 12 11 11 13 12 12 12 12 11 13
14 15 15 16 15 14 13 11 11 11 10 10 11 11 10 9 9 9 9 10 11 11 11 11 12 11 11 12 11 11 12 12 12 11 11 10 11 12 12 11 11 12
15 15 14 13 13 13 11 11 13 12 13 13 10 9 9 9 8 9 10 10 10 10 10 12 11 12 11 11 12 11 12 12 12 11 11 12 12 12 12 11 12 13
11 12 12 12 12 11 12 12 13 13 13 11 13 9 9 9 8 9 9 10 10 10 11 11 11 11 11 12 11 11 12 11 11 12 12 13 12 11 11 11 12 13
11 10 12 12 11 11 12 13 13 12 12 12 8 9 9 9 9 10 10 11 11 11 12 11 11 11 11 11 12 12 12 12 11 11 12 12 11 12 12 12 12 13
12 10 11 10 12 12 13 13 13 12 12 9 10 10 9 10 11 10 10 11 11 12 12 12 12 12 12 12 12 13 13 11 11 11 11 12 11 12 12 11 12 13
10 10 10 11 12 12 13 14 13 11 10 11 11 10 10 11 12 11 11 11 11 11 11 11 12 12 11 12 13 14 13 13 13 13 13 12 12 12 10 9 10 12
9 10 9 10 11 12 14 13 12 11 10 11 11 10 10 10 11 11 10 10 11 11 11 12 12 12 12 12 14 13 13 14 13 13 13 13 13 12 11 9 10 10
10 9 9 11 12 12 14 13 12 11 10 12 10 11 11 9 9 9 9 10 12 12 13 12 13 13 13 13 13 13 13 13 13 13 13 13 13 12 12 12 12 12
10 9 10 13 13 12 13 12 11 10 10 9 10 12 10 9 10 9 11 12 12 13 13 13 12 12 13 14 14 13 12 13 12 12 12 13 13 12 12 12 12 12
10 12 12 12 11 11 9 8 9 10 10 11 11 11 10 10 10 11 11 12 13 12 13 13 13 13 13 13 13 13 13 12 12 12 12 12 12 12 11 11 11 11
12 10 8 8 7 6 7 8 8 8 10 10 7 10 12 12 12 13 12 11 12 13 13 12 12 12 12 13 13 12 12 12 12 12 12 11 11 11 12 12 12 12
8 5 5 6 6 6 8 9 9 9 8 8 9 10 11 12 11 11 11 11 11 12 12 11 12 12 12 12 12 12 12 12 12 12 12 11 11 11 11 11 10 9
5 6 6 5 6 9 10 9 9 9 8 8 10 11 11 10 10 10 11 12 13 12 11 11 12 11 14 19 16 12 12 11 11 11 11 11 11 10 10 9 9 8
6 7 5 7 9 7 8 8 9 6 7 8 9 10 11 10 10 10 12 12 12 12 12 12 12 11 17 17 18 19 14 11 11 11 10 11 10 10 10 9 8 7
7 6 7 9 7 10 8 7 5 7 8 9 9 10 10 7 9 12 12 11 11 11 12 12 12 14 16 17 18 19 17 12 10 10 10 9 9 10 8 7 8 8
6 7 9 9 10 9 7 6 7 8 9 10 12 9 6 9 12 11 11 11 11 12 13 12 11 14 16 17 17 18 19 16 10 10 9 9 8 9 8 8 7 7
6 7 9 9 7 7 6 7 8 11 10 9 8 7 10 10 9 11 11 11 12 12 11 10 11 12 16 17 17 18 18 16 10 9 9 8 9 9 8 8 8 8
7 7 9 7 6 6 6 8 10 10 10 10 9 9 10 11 11 10 11 11 11 10 10 11 11 14 16 17 17 18 17 15 9 8 8 7 8 8 8 8 8 8
8 9 9 7 6 7 8 10 10 11 11 8 7 8 7 7 8 9 11 10 8 8 9 10 7 13 16 17 17 16 17 11 9 8 8 7 7 5 6 7 7 7
9 9 8 8 7 7 10 11 11 10 8 5 8 8 8 9 9 8 7 7 9 9 10 9 7 11 15 16 16 16 13 8 8 8 7 7 6 6 6 6 5 6
7 7 8 8 7 10 12 11 8 6 7 6 8 8 9 9 6 6 6 7 9 10 10 9 8 9 14 15 16 17 14 9 8 8 6 6 5 4 5 5 5 9
7 7 9 9 10 12 10 10 9 9 6 6 8 7 7 5 6 7 7 6 7 8 10 11 8 9 13 15 16 16 12 8 8 6 7 6 7 6 4 5 5 6
5 7 9 9 12 10 7 9 5 5 8 8 7 7 7 6 6 7 8 7 5 6 8 9 8 7 9 14 16 15 14 9 7 7 8 8 6 7 5 3 4 4
Wind_Direction
216 213 217 218 222 222 222 220 219 220 220 218 218 219 215 217 206 204 209 208 209 212 212 211 208 209 211 205 205 206 211 216 216 214 210 213 222 222 221 223 218 219
215 214 216 220 226 226 227 222 222 219 222 218 219 221 218 213 208 201 203 205 206 212 210 208 208 207 206 206 203 205 212 215 220 211 211 215 223 219 223 222 220 220
216 214 216 217 221 221 220 221 223 224 223 223 222 219 221 207 204 200 202 202 205 207 207 206 206 206 206 206 204 205 211 216 220 215 209 218 220 220 223 221 220 220
217 216 216 220 222 224 221 220 223 225 225 227 222 217 213 210 202 199 201 200 203 204 204 203 206 204 205 206 203 207 213 217 219 213 212 218 220 220 222 219 220 221
215 218 220 222 223 224 222 221 223 222 222 225 226 216 210 208 195 198 198 200 202 204 200 203 203 205 203 205 203 209 213 218 217 212 212 217 221 217 221 218 218 221
221 221 221 223 223 220 222 223 225 224 224 225 224 215 213 206 201 199 197 198 201 202 202 200 201 205 202 204 205 210 213 215 215 210 213 218 222 216 218 217 218 221
223 220 223 223 225 223 223 226 228 226 224 224 217 217 207 202 203 202 199 200 199 201 202 199 200 202 202 203 206 212 215 214 215 211 214 219 219 219 217 216 217 220
223 220 220 220 221 223 225 227 228 225 224 218 215 217 204 206 207 204 201 199 200 201 202 201 200 202 201 201 207 213 215 214 215 214 216 222 219 223 218 216 216 221
223 222 219 219 220 223 226 226 228 226 217 216 215 217 209 206 209 205 202 200 201 202 201 202 202 204 201 202 208 211 213 214 215 216 220 223 223 225 221 213 217 220
225 226 222 221 222 224 227 226 224 223 216 217 216 216 212 211 210 207 200 199 202 203 203 203 204 205 204 205 209 210 212 214 214 216 219 222 224 226 224 216 218 220
232 225 223 223 225 225 228 226 224 220 215 216 215 216 215 207 209 202 198 198 202 203 204 204 205 205 206 209 212 212 213 215 215 216 218 220 221 222 220 220 221 221
234 230 226 226 226 227 228 226 223 220 217 215 211 217 212 208 204 200 199 202 204 205 206 205 206 205 206 209 211 212 214 215 216 216 217 219 221 221 220 218 221 222
230 228 226 229 229 232 233 230 224 220 213 214 209 212 207 205 206 204 205 204 205 205 207 206 207 206 208 211 212 212 213 214 215 216 218 219 220 221 221 221 221 221
234 232 236 239 243 243 237 233 230 221 218 217 199 206 210 208 205 206 206 204 207 208 209 207 207 206 209 212 212 212 211 214 214 216 218 219 219 219 219 220 218 220
244 246 243 245 239 239 236 233 229 227 221 212 205 211 212 213 208 205 203 206 212 211 210 207 207 209 208 209 210 210 212 213 214 215 216 218 220 220 221 221 221 217
247 248 244 242 237 231 233 231 229 224 217 213 214 214 214 211 208 204 203 205 208 211 211 208 211 212 211 206 202 204 208 212 214 215 213 216 217 221 223 220 214 208
243 244 239 242 237 241 237 232 231 223 220 220 220 217 215 211 204 201 207 208 207 208 210 212 214 214 209 203 203 204 205 208 211 213 212 214 214 215 219 210 207 205
236 241 236 240 236 238 235 235 229 221 223 223 223 221 218 206 204 210 210 207 209 210 213 213 216 213 205 203 203 205 204 207 209 212 210 211 211 212 211 199 201 203
232 231 236 236 232 233 231 224 222 225 226 222 225 220 202 205 213 210 213 209 208 211 215 213 217 209 204 204 205 204 205 206 212 209 205 207 202 200 198 197 193 197
233 234 242 242 236 230 222 221 218 224 223 222 222 205 209 214 215 214 214 211 210 212 215 214 216 205 203 205 207 205 206 204 213 205 205 200 197 192 190 191 188 186
235 233 242 244 232 227 223 227 225 228 223 218 210 210 208 213 212 215 218 215 212 210 214 215 215 200 202 205 207 205 205 201 208 200 197 194 190 188 185 185 183 184
228 235 235 230 221 220 226 231 228 225 223 210 208 216 217 219 225 218 217 214 211 206 212 220 212 196 202 206 204 202 196 194 191 187 185 182 183 185 183 184 182 181
224 226 232 228 216 217 228 231 228 227 224 198 210 215 213 216 220 215 213 207 207 208 210 217 207 202 201 200 197 192 182 185 179 174 175 178 186 183 186 181 181 183
222 218 230 227 215 223 229 231 227 224 215 195 207 206 215 218 207 213 213 209 205 208 205 204 208 201 196 192 186 180 171 169 171 168 174 178 182 186 175 181 190 192
213 215 224 225 223 231 227 225 218 213 201 188 207 205 214 194 195 204 212 211 210 207 199 200 199 197 193 186 179 175 169 161 163 166 173 188 175 180 181 180 189 198
217 219 227 224 231 235 223 222 208 201 202 198 203 198 198 189 193 199 203 211 200 201 201 202 187 192 191 187 177 176 171 160 166 171 190 181 180 172 171 205 197 194